Hourly Weather Alins

Today, 2 December, Wednesday

Time Temperature Precipitation Wind Pressure Humidity
00:00 -1°C° 0 mm 3 mps 637 mmHg 84%
01:00 -2°C° 0 mm 3 mps 636 mmHg 82%
02:00 -4°C° 0 mm 3 mps 636 mmHg 79%
03:00 -5°C° 0 mm 4 mps 635 mmHg 77%
04:00 -5°C° 0 mm 4 mps 635 mmHg 76%
05:00 -7°C° 0 mm 4 mps 635 mmHg 75%
06:00 -8°C° 0 mm 4 mps 635 mmHg 73%
07:00 -7°C° 0 mm 4 mps 635 mmHg 69%
08:00 -5°C° 0 mm 4 mps 635 mmHg 65%
09:00 -4°C° 0 mm 4 mps 636 mmHg 61%
10:00 -3°C° 0.1 mm 4 mps 636 mmHg 58%
11:00 -2°C° 0.1 mm 4 mps 636 mmHg 55%
12:00 -1°C° 0.1 mm 4 mps 636 mmHg 52%
13:00 -1°C° 0 mm 4 mps 636 mmHg 54%
14:00 -1°C° 0 mm 4 mps 636 mmHg 56%
15:00 -2°C° 0 mm 4 mps 636 mmHg 58%
16:00 -3°C° 0 mm 4 mps 636 mmHg 63%
17:00 -4°C° 0 mm 4 mps 635 mmHg 68%
18:00 -5°C° 0 mm 4 mps 635 mmHg 74%
19:00 -5°C° 0 mm 3 mps 635 mmHg 74%
20:00 -6°C° 0 mm 3 mps 636 mmHg 74%
21:00 -6°C° 0 mm 3 mps 636 mmHg 74%
22:00 -6°C° 0 mm 3 mps 636 mmHg 72%
23:00 -6°C° 0 mm 3 mps 635 mmHg 70%

Tomorrow, 3 December, Thursday

Time Temperature Precipitation Wind Pressure Humidity
00:00 -6°C° 0 mm 3 mps 635 mmHg 69%
01:00 -5°C° 0 mm 2 mps 635 mmHg 65%
02:00 -5°C° 0 mm 2 mps 635 mmHg 62%
03:00 -4°C° 0 mm 2 mps 634 mmHg 58%
04:00 -4°C° 0 mm 2 mps 634 mmHg 59%
05:00 -4°C° 0 mm 2 mps 634 mmHg 60%
06:00 -3°C° 0 mm 2 mps 634 mmHg 60%
07:00 0°C° 0 mm 1 mps 634 mmHg 61%
08:00 +1°C° 0 mm 1 mps 634 mmHg 61%
09:00 +2°C° 0 mm 1 mps 634 mmHg 61%
10:00 +3°C° 0 mm 1 mps 633 mmHg 58%
11:00 +4°C° 0 mm 1 mps 633 mmHg 54%
12:00 +4°C° 0 mm 2 mps 633 mmHg 51%
13:00 +3°C° 0 mm 2 mps 632 mmHg 54%
14:00 +2°C° 0 mm 2 mps 631 mmHg 58%
15:00 +3°C° 0 mm 1 mps 629 mmHg 61%
16:00 +1°C° 0 mm 1 mps 629 mmHg 67%
17:00 0°C° 0 mm 1 mps 628 mmHg 72%
18:00 -1°C° 0 mm 1 mps 627 mmHg 77%
19:00 -1°C° 0 mm 1 mps 626 mmHg 78%
20:00 -1°C° 0 mm 1 mps 626 mmHg 80%
21:00 -1°C° 0 mm 1 mps 625 mmHg 81%
22:00 -4°C° 0.5 mm 2 mps 624 mmHg 86%
23:00 -4°C° 0.5 mm 2 mps 623 mmHg 90%

Day after tomorrow, 4 December, Friday

Time Temperature Precipitation Wind Pressure Humidity
00:00 -4°C° 0.5 mm 2 mps 622 mmHg 94%
01:00 -4°C° 0.4 mm 2 mps 622 mmHg 94%
02:00 -4°C° 0.4 mm 2 mps 621 mmHg 94%
03:00 -4°C° 0.4 mm 2 mps 620 mmHg 95%
04:00 -4°C° 1 mm 2 mps 620 mmHg 95%
05:00 -4°C° 1 mm 2 mps 620 mmHg 96%
06:00 -4°C° 1 mm 2 mps 620 mmHg 97%
07:00 -3°C° 0.8 mm 2 mps 620 mmHg 96%
08:00 -3°C° 0.8 mm 2 mps 620 mmHg 95%
09:00 -3°C° 0.8 mm 2 mps 621 mmHg 93%
10:00 -3°C° 0.5 mm 2 mps 621 mmHg 88%
11:00 -2°C° 0.5 mm 2 mps 621 mmHg 83%
12:00 -2°C° 0.5 mm 2 mps 621 mmHg 77%
13:00 -2°C° 0.2 mm 2 mps 620 mmHg 78%
14:00 -2°C° 0.2 mm 2 mps 620 mmHg 78%
15:00 -3°C° 0.2 mm 2 mps 620 mmHg 78%
16:00 -4°C° 0.1 mm 2 mps 619 mmHg 82%
17:00 -4°C° 0.1 mm 1 mps 619 mmHg 85%
18:00 -6°C° 0.1 mm 1 mps 619 mmHg 89%
19:00 -7°C° 0 mm 1 mps 619 mmHg 88%
20:00 -7°C° 0 mm 1 mps 619 mmHg 88%
21:00 -8°C° 0 mm 1 mps 619 mmHg 88%
22:00 -9°C° 0 mm 2 mps 619 mmHg 85%
23:00 -9°C° 0 mm 2 mps 619 mmHg 83%

5 December, Saturday

Time Temperature Precipitation Wind Pressure Humidity
00:00 -8°C° 0 mm 2 mps 620 mmHg 81%
01:00 -9°C° 0 mm 2 mps 620 mmHg 81%
02:00 -9°C° 0 mm 2 mps 620 mmHg 80%
03:00 -9°C° 0 mm 2 mps 620 mmHg 79%
04:00 -8°C° 0.1 mm 1 mps 620 mmHg 79%
05:00 -8°C° 0.1 mm 1 mps 620 mmHg 79%
06:00 -7°C° 0.1 mm 1 mps 620 mmHg 79%
07:00 -6°C° 0 mm 1 mps 621 mmHg 78%
08:00 -6°C° 0 mm 1 mps 621 mmHg 77%
09:00 -4°C° 0 mm 1 mps 622 mmHg 75%
10:00 -3°C° 0.1 mm 1 mps 623 mmHg 74%
11:00 -1°C° 0.1 mm 1 mps 623 mmHg 73%
12:00 0°C° 0.1 mm 1 mps 624 mmHg 72%
13:00 0°C° 0 mm 1 mps 624 mmHg 73%
14:00 0°C° 0 mm 1 mps 624 mmHg 74%
15:00 0°C° 0 mm 1 mps 624 mmHg 75%
16:00 -2°C° 0 mm 1 mps 624 mmHg 79%
17:00 -4°C° 0 mm 1 mps 624 mmHg 83%
18:00 -6°C° 0 mm 1 mps 623 mmHg 87%
19:00 -6°C° 0 mm 1 mps 623 mmHg 88%
20:00 -6°C° 0 mm 1 mps 624 mmHg 89%
21:00 -6°C° 0 mm 1 mps 624 mmHg 90%
22:00 -6°C° 0.2 mm 1 mps 624 mmHg 92%
23:00 -6°C° 0.2 mm 1 mps 624 mmHg 93%

6 December, Sunday

Time Temperature Precipitation Wind Pressure Humidity
00:00 -6°C° 0.2 mm 1 mps 624 mmHg 94%
01:00 -6°C° 0 mm 1 mps 624 mmHg 93%
02:00 -7°C° 0 mm 1 mps 623 mmHg 92%
03:00 -7°C° 0 mm 1 mps 623 mmHg 91%
04:00 -7°C° 0 mm 1 mps 623 mmHg 90%
05:00 -7°C° 0 mm 1 mps 623 mmHg 89%
06:00 -7°C° 0 mm 1 mps 623 mmHg 89%
07:00 -6°C° 0 mm 1 mps 623 mmHg 87%
08:00 -4°C° 0 mm 1 mps 624 mmHg 86%
09:00 -3°C° 0 mm 1 mps 624 mmHg 84%
10:00 -2°C° 0.1 mm 1 mps 625 mmHg 83%
11:00 -3°C° 0.1 mm 2 mps 625 mmHg 82%
12:00 -2°C° 0.1 mm 2 mps 625 mmHg 82%
13:00 -3°C° 0.3 mm 2 mps 626 mmHg 83%
14:00 -1°C° 0.3 mm 1 mps 626 mmHg 85%
15:00 -1°C° 0.3 mm 1 mps 626 mmHg 86%
16:00 -2°C° 0.1 mm 1 mps 626 mmHg 87%
17:00 -3°C° 0.1 mm 1 mps 626 mmHg 89%
18:00 -7°C° 0.1 mm 2 mps 626 mmHg 90%
19:00 -7°C° 0 mm 2 mps 626 mmHg 88%
20:00 -6°C° 0 mm 1 mps 627 mmHg 86%
21:00 -6°C° 0 mm 1 mps 627 mmHg 84%
22:00 -6°C° 0 mm 1 mps 627 mmHg 84%
23:00 -6°C° 0 mm 1 mps 627 mmHg 84%

7 December, Monday

Time Temperature Precipitation Wind Pressure Humidity
00:00 -7°C° 0 mm 1 mps 627 mmHg 84%
01:00 -6°C° 0.1 mm 1 mps 627 mmHg 84%
02:00 -6°C° 0.1 mm 1 mps 628 mmHg 84%
03:00 -7°C° 0.1 mm 2 mps 628 mmHg 84%
04:00 -7°C° 0.1 mm 2 mps 628 mmHg 85%
05:00 -7°C° 0.1 mm 2 mps 629 mmHg 85%
06:00 -7°C° 0.1 mm 2 mps 629 mmHg 86%
07:00 -4°C° 0.1 mm 1 mps 630 mmHg 84%
08:00 -3°C° 0.1 mm 1 mps 631 mmHg 82%
09:00 -1°C° 0.1 mm 1 mps 632 mmHg 80%
10:00 0°C° 0 mm 1 mps 632 mmHg 76%
11:00 +1°C° 0 mm 1 mps 633 mmHg 72%
12:00 +2°C° 0 mm 1 mps 633 mmHg 68%
13:00 +2°C° 0 mm 1 mps 633 mmHg 71%
14:00 +2°C° 0 mm 1 mps 633 mmHg 75%
15:00 +2°C° 0 mm 1 mps 633 mmHg 79%
16:00 0°C° 0 mm 1 mps 632 mmHg 83%
17:00 -2°C° 0 mm 1 mps 632 mmHg 86%
18:00 -3°C° 0 mm 1 mps 631 mmHg 90%
19:00 -3°C° 0 mm 1 mps 631 mmHg 91%
20:00 -3°C° 0 mm 1 mps 631 mmHg 91%
21:00 -5°C° 0 mm 2 mps 631 mmHg 92%
22:00 -5°C° 0 mm 2 mps 631 mmHg 92%
23:00 -5°C° 0 mm 2 mps 630 mmHg 92%
Show more